Wind_Speed
63 60 59 58 54 53 56 54 54 57 59 56 55 54 54 52 52 52 52 48 46 43 40 37 34 32 32 30 30 29 27 26 26 26 24 23 21 19 18 16 14 12 11 10 8
67 59 60 58 57 54 57 52 51 53 56 56 55 55 55 54 53 53 54 52 49 46 43 40 38 36 34 33 32 31 28 28 27 28 26 25 23 20 20 18 17 16 14 12 11
64 66 61 57 56 58 59 51 54 50 50 53 51 53 55 53 54 54 55 53 50 49 46 43 41 39 36 35 33 31 31 30 30 29 28 26 24 23 23 22 23 19 17 14 14
64 63 69 65 58 57 57 57 57 52 46 48 48 48 52 52 55 53 53 52 50 49 47 46 44 41 37 36 33 33 32 30 30 31 31 28 26 26 26 26 25 23 21 18 19
74 63 66 72 71 61 56 54 51 58 52 59 52 47 48 51 52 51 52 51 50 50 49 47 46 43 40 36 35 34 31 31 30 31 32 30 29 29 28 30 28 25 22 22 23
71 76 65 66 70 66 70 58 53 61 54 51 53 46 47 48 49 50 51 50 49 49 49 48 46 44 41 38 37 34 33 33 32 32 32 31 30 31 29 33 30 27 26 25 26
61 67 78 66 73 69 63 65 56 53 57 51 48 58 46 47 48 48 48 48 48 48 50 50 47 46 42 41 38 36 35 34 33 32 33 32 31 30 33 31 32 30 29 28 29
59 55 77 81 72 70 69 66 60 58 55 62 50 51 50 48 46 46 45 45 46 47 49 51 50 48 46 43 42 40 38 36 34 33 34 35 30 35 33 35 34 33 32 32 33
56 52 65 81 70 65 68 68 62 60 55 64 56 52 54 50 50 47 46 45 45 46 49 51 51 50 48 47 45 43 41 39 36 38 37 38 34 36 36 38 37 36 35 37 38
62 53 52 64 75 74 66 71 65 67 62 59 63 55 53 53 51 49 47 46 43 44 48 51 51 49 50 48 45 45 44 42 43 41 40 39 38 37 38 40 38 39 40 41 41
58 55 54 57 67 77 70 67 72 71 67 63 60 56 48 50 50 49 48 47 45 44 47 47 50 47 47 47 50 48 48 47 46 46 44 43 42 41 40 42 41 41 43 43 42
52 55 52 51 59 69 74 73 69 63 60 59 59 60 51 47 52 48 45 46 46 43 45 46 47 48 49 48 50 50 51 50 48 48 48 46 47 45 45 43 44 44 44 42 42
53 54 56 57 60 62 69 68 63 65 68 68 62 62 60 56 50 49 48 45 46 45 47 46 46 47 45 48 50 50 51 50 50 49 46 50 53 57 52 45 44 45 44 44 43
55 61 56 52 56 56 54 65 76 69 65 69 71 64 62 62 57 54 51 50 51 49 45 48 50 48 48 48 47 49 49 48 49 45 45 49 56 49 44 49 51 50 48 47 46
53 50 49 57 54 51 47 52 64 70 66 65 62 66 64 60 62 61 57 50 53 51 50 52 48 46 48 45 46 46 46 47 50 52 53 55 59 58 51 49 49 49 48 51 54
50 49 47 50 55 51 46 53 54 64 74 66 62 62 61 62 62 61 62 62 55 53 53 55 53 51 48 47 47 49 49 51 54 57 62 60 59 61 64 59 54 53 52 51 52
47 46 45 50 54 51 49 49 49 54 58 58 63 60 56 58 63 61 59 60 59 59 58 56 54 54 53 53 54 55 58 57 59 61 64 63 62 61 64 60 54 49 48 48 51
49 48 48 47 48 48 47 48 55 53 52 54 54 57 54 53 59 58 61 61 61 59 55 57 59 60 56 54 53 54 55 57 58 58 60 63 64 62 59 52 50 46 47 48 44
50 50 49 50 45 42 45 48 48 50 52 50 51 50 57 57 53 55 57 57 59 62 63 65 63 61 60 58 57 57 59 50 53 56 60 60 58 56 57 49 48 49 44 41 41
47 49 53 49 47 52 51 49 49 49 48 49 48 47 46 46 53 53 51 52 54 55 58 59 56 57 56 58 59 60 56 53 53 56 57 57 54 51 48 47 44 43 41 40 42
51 54 52 48 45 50 51 49 49 52 51 50 50 48 43 41 40 42 48 48 51 52 53 56 55 56 56 56 52 53 56 55 55 57 59 61 55 52 51 47 46 42 43 42 43
53 55 57 56 51 48 47 48 56 60 56 52 48 45 41 39 37 38 39 40 41 42 44 42 49 57 54 52 51 44 50 51 53 54 52 51 49 46 49 50 48 46 42 43 44
45 49 55 56 57 55 53 48 50 51 48 45 45 43 39 38 39 39 37 39 45 43 38 38 44 45 50 52 48 49 44 44 45 47 52 52 49 46 46 47 49 49 47 47 48
51 56 55 55 54 55 60 55 53 49 45 43 45 42 42 41 43 40 40 44 45 44 47 46 50 50 47 44 49 49 48 49 51 56 54 54 50 47 50 53 52 45 46 48 47
61 48 53 61 59 54 59 54 48 46 45 41 39 39 39 37 37 39 41 40 43 43 40 46 49 51 51 50 53 53 52 52 54 54 58 51 53 46 45 52 47 49 52 49 50
62 53 60 62 55 53 56 58 54 48 50 43 41 36 35 37 35 35 35 37 37 36 38 41 44 44 46 46 48 53 54 54 54 54 54 53 51 44 45 47 49 49 52 50 49
65 55 51 56 58 58 63 62 57 53 49 46 42 42 41 42 36 33 34 35 38 38 32 40 47 47 49 47 50 54 52 49 50 51 53 53 43 43 48 52 51 47 50 51 48
Wind_Direction
235 233 234 230 226 233 236 233 233 233 236 234 234 234 235 233 233 234 231 227 224 220 219 217 217 217 219 223 226 224 226 228 229 227 220 223 224 227 229 229 230 231 230 231 241
236 229 230 229 227 229 234 231 233 233 235 236 234 235 235 235 234 233 230 228 225 222 220 218 218 218 219 222 225 227 225 226 228 227 223 227 231 234 239 241 240 241 242 249 258
237 233 229 225 228 228 230 228 230 232 233 235 235 235 235 235 236 232 231 231 230 225 220 219 218 219 220 223 225 230 229 229 228 228 228 230 232 235 239 245 246 248 250 260 268
232 233 225 225 223 225 224 229 226 229 235 231 235 235 234 233 234 233 232 231 231 229 224 219 218 220 221 224 230 231 233 232 229 229 232 235 240 242 244 249 248 251 256 261 266
228 229 232 229 225 223 225 226 227 229 231 239 237 237 235 233 232 231 230 230 231 230 226 220 218 220 224 226 230 233 233 233 232 235 237 239 243 247 251 255 255 254 256 259 263
233 229 228 233 227 224 223 223 228 237 224 228 228 231 234 234 230 229 229 228 228 229 226 223 220 222 226 228 230 232 232 236 237 239 241 243 246 250 255 259 261 259 262 263 265
237 238 231 228 230 222 223 223 224 227 225 229 229 229 235 232 231 228 227 226 225 225 223 222 222 226 227 230 232 232 235 240 243 246 249 251 250 254 255 259 266 266 266 267 267
237 240 233 232 235 228 221 223 223 226 225 227 230 227 232 232 231 230 227 225 225 225 223 221 223 227 229 232 232 235 237 241 246 252 256 256 254 255 258 262 265 269 272 271 270
240 240 232 236 231 237 226 225 219 225 228 225 228 229 225 232 229 230 228 225 223 224 224 225 224 228 231 233 235 237 241 244 248 252 256 259 259 262 263 265 267 271 274 273 273
241 239 236 230 231 229 235 226 224 226 227 223 225 227 224 230 229 229 230 229 225 225 227 227 230 231 233 236 240 241 245 246 250 250 256 261 264 265 266 269 273 275 274 274 275
237 236 235 232 229 232 229 233 228 224 226 226 225 226 226 228 233 228 229 233 231 226 228 232 233 236 238 239 241 242 245 247 249 255 255 258 263 265 268 272 273 273 275 277 278
229 230 229 236 226 228 230 234 233 232 226 227 229 226 222 226 227 228 226 228 232 232 233 232 235 235 238 240 243 245 246 248 251 252 255 256 258 264 267 270 273 275 276 278 276
217 218 224 212 232 225 227 228 231 238 234 226 223 223 222 226 227 227 228 226 229 230 231 232 235 238 240 241 243 245 246 247 249 251 254 255 264 263 263 272 274 277 280 277 276
214 215 219 222 233 234 230 233 232 231 239 237 232 233 232 225 228 229 228 228 232 235 234 235 236 238 239 241 243 246 247 250 251 251 256 262 269 273 270 270 271 274 274 275 275
205 207 214 217 225 235 234 233 232 234 237 238 236 233 232 232 230 227 229 227 231 236 235 238 239 235 236 236 238 242 243 248 253 259 260 265 269 272 271 272 270 269 271 272 275
211 214 217 219 220 226 226 227 230 231 235 238 238 235 235 231 231 231 231 230 229 231 233 237 236 235 234 238 242 247 253 257 260 263 262 266 268 272 275 272 268 269 269 271 273
205 211 217 219 222 221 218 214 214 226 233 236 237 235 235 233 232 230 234 236 236 234 233 235 233 235 239 243 248 252 253 258 261 264 266 267 268 273 272 275 274 274 273 271 269
204 206 219 219 219 220 219 217 215 226 232 234 231 231 231 232 231 231 233 234 234 228 231 233 237 241 242 244 246 251 254 257 260 264 266 266 269 272 271 271 274 275 272 273 273
201 208 210 214 219 214 213 214 220 225 232 232 234 235 234 234 235 234 235 236 237 237 237 236 238 240 244 248 251 253 255 259 259 261 264 265 269 270 270 273 270 269 269 271 273
194 201 209 213 214 214 217 213 218 223 226 232 235 238 240 239 238 238 239 241 241 241 241 242 245 249 252 254 255 258 256 254 255 259 261 266 268 270 272 269 268 270 272 274 277
204 205 205 207 209 214 219 216 216 221 226 230 231 235 236 240 238 235 238 241 243 244 245 246 246 246 248 249 250 249 252 252 255 255 259 263 266 271 271 271 269 277 277 279 279
207 210 207 206 204 213 221 217 219 228 229 227 227 230 231 235 240 236 237 236 237 238 240 244 243 244 245 245 244 247 247 247 250 253 260 262 260 270 267 270 276 278 278 277 279
206 213 207 210 212 214 219 217 214 222 228 227 231 230 229 230 229 231 228 227 229 224 222 227 240 241 243 243 238 243 244 251 253 254 256 259 262 263 265 272 274 275 277 280 279
209 217 222 223 214 218 221 220 223 220 219 222 228 231 231 226 227 226 225 229 229 226 228 228 236 239 243 248 248 244 246 248 252 255 259 261 264 263 270 274 271 273 276 276 278
214 216 219 224 224 215 219 223 221 223 217 221 221 228 232 229 227 227 226 228 231 232 235 236 240 244 244 247 250 250 249 248 251 256 256 262 261 264 266 267 276 276 272 271 275
198 207 219 219 223 217 216 224 223 225 222 232 233 240 239 237 234 239 238 234 236 238 241 242 241 240 242 244 245 249 253 251 251 253 257 262 266 267 271 271 268 269 275 278 278
215 214 208 210 209 216 219 222 227 222 223 227 236 240 246 238 237 243 234 233 236 240 236 241 243 245 247 250 253 252 255 261 263 260 261 262 273 271 267 269 271 277 276 278 278
Height
5713 5719 5725 5730 5734 5742 5748 5753 5758 5765 5770 5775 5780 5785 5790 5795 5799 5803 5807 5812 5815 5820 5824 5828 5831 5835 5838 5841 5845 5846 5848 5849 5850 5852 5854 5855 5856 5857 5857 5857 5857 5858 5859 5860 5860
5700 5707 5714 5720 5725 5731 5739 5744 5749 5755 5761 5766 5771 5776 5781 5786 5791 5795 5801 5805 5809 5814 5818 5822 5825 5829 5832 5835 5839 5841 5844 5844 5847 5849 5851 5852 5853 5854 5855 5855 5855 5856 5857 5857 5858
5688 5695 5703 5710 5716 5721 5729 5735 5741 5747 5752 5757 5762 5767 5773 5778 5783 5787 5792 5798 5803 5807 5811 5816 5820 5823 5827 5830 5834 5836 5838 5840 5842 5845 5847 5849 5850 5851 5851 5852 5852 5854 5855 5856 5855
5676 5683 5691 5698 5706 5712 5718 5725 5731 5738 5742 5748 5754 5758 5764 5769 5774 5780 5785 5791 5796 5801 5805 5809 5813 5817 5821 5824 5828 5830 5832 5836 5839 5841 5843 5845 5847 5847 5848 5848 5849 5851 5852 5853 5853
5663 5670 5678 5686 5694 5701 5708 5715 5721 5727 5733 5740 5745 5750 5756 5761 5765 5772 5777 5783 5789 5794 5798 5802 5806 5811 5814 5819 5822 5824 5828 5830 5833 5834 5837 5840 5842 5842 5844 5843 5845 5847 5848 5848 5848
5651 5658 5664 5672 5681 5688 5696 5704 5710 5716 5723 5731 5737 5742 5749 5754 5758 5764 5769 5775 5780 5786 5791 5796 5800 5804 5808 5812 5815 5820 5822 5824 5827 5829 5831 5834 5836 5837 5839 5837 5840 5842 5842 5843 5843
5639 5647 5653 5660 5667 5673 5683 5693 5700 5707 5714 5721 5727 5733 5741 5745 5750 5756 5762 5767 5773 5778 5783 5789 5794 5797 5803 5805 5809 5813 5817 5818 5820 5823 5825 5827 5830 5832 5831 5833 5833 5835 5836 5837 5837
5626 5634 5644 5649 5654 5662 5670 5681 5689 5698 5703 5711 5717 5724 5733 5737 5743 5749 5754 5760 5765 5770 5776 5780 5786 5790 5794 5799 5802 5806 5810 5812 5815 5817 5818 5820 5826 5823 5825 5826 5828 5829 5831 5831 5830
5617 5624 5631 5639 5647 5651 5660 5669 5676 5686 5693 5699 5707 5715 5723 5730 5735 5740 5746 5752 5756 5762 5768 5773 5778 5783 5788 5792 5796 5799 5803 5807 5809 5810 5811 5813 5818 5819 5820 5820 5822 5823 5824 5823 5824
5607 5616 5622 5631 5637 5643 5649 5658 5665 5673 5681 5687 5695 5708 5714 5721 5726 5732 5738 5744 5749 5754 5760 5766 5771 5776 5780 5784 5790 5792 5795 5799 5798 5803 5804 5806 5810 5813 5814 5815 5817 5817 5816 5815 5816
5596 5604 5613 5620 5627 5632 5641 5647 5656 5664 5669 5678 5689 5699 5706 5712 5718 5723 5730 5737 5742 5746 5752 5757 5764 5769 5773 5777 5779 5783 5786 5789 5791 5793 5796 5798 5801 5806 5808 5808 5810 5809 5808 5808 5809
5584 5594 5602 5610 5616 5623 5631 5638 5646 5656 5663 5670 5679 5686 5695 5701 5707 5713 5721 5728 5734 5739 5744 5750 5755 5759 5763 5767 5771 5775 5778 5780 5784 5785 5788 5790 5793 5796 5799 5801 5800 5799 5799 5799 5798
5575 5586 5593 5604 5606 5614 5625 5631 5638 5643 5651 5659 5666 5674 5685 5692 5698 5704 5711 5717 5724 5729 5735 5740 5745 5750 5755 5758 5761 5765 5768 5771 5775 5777 5780 5781 5786 5786 5788 5792 5790 5790 5790 5789 5788
5565 5576 5585 5592 5596 5606 5615 5622 5626 5634 5639 5649 5658 5667 5675 5682 5688 5695 5701 5708 5714 5721 5726 5730 5734 5741 5745 5749 5752 5756 5759 5762 5765 5768 5771 5773 5771 5776 5782 5782 5780 5779 5779 5778 5777
5555 5566 5574 5584 5589 5599 5609 5613 5619 5625 5628 5638 5643 5653 5664 5671 5680 5686 5692 5698 5705 5711 5718 5723 5726 5732 5735 5739 5742 5745 5751 5752 5754 5756 5759 5762 5763 5766 5771 5771 5769 5770 5770 5768 5766
5546 5555 5564 5571 5581 5590 5598 5602 5609 5613 5613 5625 5635 5643 5652 5659 5666 5673 5680 5687 5693 5700 5706 5710 5716 5722 5726 5729 5732 5736 5740 5742 5743 5744 5747 5750 5752 5758 5751 5758 5759 5759 5758 5757 5755
5537 5546 5555 5564 5573 5582 5587 5595 5597 5598 5609 5618 5626 5634 5642 5650 5656 5663 5671 5677 5685 5691 5696 5702 5707 5711 5716 5719 5720 5724 5728 5729 5731 5733 5736 5736 5739 5747 5739 5743 5743 5747 5746 5744 5743
5529 5540 5547 5556 5563 5570 5578 5584 5584 5593 5602 5608 5616 5621 5629 5637 5643 5651 5658 5665 5672 5679 5685 5690 5695 5700 5705 5708 5711 5713 5716 5717 5717 5721 5724 5723 5725 5730 5731 5735 5733 5733 5731 5730 5731
5521 5530 5538 5546 5556 5561 5569 5571 5578 5588 5595 5602 5606 5614 5621 5628 5636 5642 5648 5656 5664 5671 5674 5678 5682 5690 5694 5695 5699 5701 5704 5709 5705 5709 5709 5714 5716 5720 5719 5724 5722 5719 5719 5719 5720
5512 5521 5530 5540 5546 5553 5557 5564 5574 5580 5588 5593 5600 5608 5616 5623 5630 5635 5640 5649 5655 5659 5660 5666 5673 5677 5681 5682 5687 5689 5693 5695 5696 5699 5700 5704 5705 5708 5710 5709 5710 5708 5709 5709 5708
5505 5511 5522 5532 5538 5540 5548 5560 5567 5572 5579 5587 5593 5601 5608 5614 5620 5626 5632 5640 5643 5648 5651 5658 5662 5666 5669 5671 5676 5679 5679 5684 5686 5687 5687 5691 5700 5698 5695 5696 5696 5698 5698 5698 5696
5493 5502 5515 5522 5527 5530 5540 5555 5562 5565 5571 5580 5586 5593 5600 5607 5612 5618 5625 5629 5633 5635 5640 5646 5648 5652 5658 5659 5661 5664 5667 5669 5670 5676 5681 5680 5690 5689 5684 5684 5685 5685 5687 5687 5685
5490 5498 5505 5511 5514 5523 5533 5543 5551 5558 5567 5574 5580 5587 5594 5599 5604 5609 5615 5620 5625 5629 5632 5635 5637 5641 5643 5646 5651 5654 5660 5663 5665 5666 5667 5667 5680 5680 5677 5676 5674 5674 5674 5674 5673
5482 5488 5495 5498 5507 5518 5526 5535 5543 5553 5559 5567 5572 5578 5585 5590 5595 5600 5606 5611 5615 5619 5622 5625 5627 5632 5636 5637 5640 5646 5650 5653 5653 5652 5657 5657 5666 5670 5667 5661 5661 5666 5664 5662 5662
5470 5477 5486 5489 5500 5514 5520 5529 5538 5545 5553 5558 5564 5572 5578 5583 5586 5591 5597 5602 5605 5609 5612 5617 5621 5624 5626 5628 5628 5632 5638 5639 5640 5645 5638 5653 5649 5659 5660 5651 5654 5650 5649 5650 5651
5460 5472 5482 5491 5499 5508 5512 5519 5532 5540 5547 5553 5562 5568 5572 5577 5583 5586 5590 5594 5597 5602 5604 5608 5611 5613 5613 5614 5615 5619 5626 5624 5629 5632 5632 5636 5639 5648 5647 5642 5640 5640 5638 5639 5638
5454 5467 5477 5484 5493 5502 5507 5516 5523 5532 5539 5545 5554 5558 5565 5569 5573 5575 5580 5583 5586 5591 5595 5597 5598 5601 5602 5604 5603 5611 5613 5617 5618 5619 5618 5621 5637 5635 5632 5627 5627 5632 5627 5625 5624